San Jose, Costa Rica

12:55 AM CST on February 21, 2017 (GMT -0600)
Juan Santamaria International

Weather History for MROC - December, 2012

Change the Weather History Date:

Wednesday, December 12, 2012

  Actual Average Record
Temperature  
Mean Temperature 75 °F -  
Max Temperature 82 °F 79 °F 86 °F (2015)
Min Temperature 68 °F 64 °F 60 °F (1998)
Cooling Degree Days 10    
Growing Degree Days 25 (Base 50)    
Moisture  
Dew Point 60 °F    
Average Humidity 61    
Maximum Humidity 88    
Minimum Humidity 31    
Precipitation  
Precipitation 0.00 in 0.03 in - ()
Sea Level Pressure  
Sea Level Pressure 29.95 in    
Wind  
Wind Speed 8 mph ()    
Max Wind Speed 16 mph    
Max Gust Speed 28 mph    
Visibility 7.3 miles    
Events      
Averages and records for this station are not official NWS values.
T = Trace of Precipitation, MM = Missing Value Source: Averaged Metar Reports

Daily Weather History Graph

Daily Weather History Graph

Search for Another Location

Airport or City:

Trip Planner

Search our weather history database for the weather conditions in past years. The results will help you decide how hot, cold, wet, or windy it might be!

Date:

Astronomy

Dec. 12, 2012 Rise Set
Actual Time 5:44 AM CST 5:17 PM CST
Civil Twilight 5:21 AM CST 5:40 PM CST
Nautical Twilight 4:55 AM CST 6:06 PM CST
Astronomical Twilight 4:29 AM CST 6:32 PM CST
Moon 4:51 AM CST (12/12) 4:50 PM CST (12/12)
Length of Visible Light 12h 18m
Length of Day
11h 33m
Waning Crescent, 1% of the Moon is Illuminated
Dec 12
Waning Crescent
Dec 13
New
Dec 19
First Quarter
Dec 28
Full
Jan 4
Last Quarter

Hourly Weather History & Observations

Time (CST) Temp. Heat Index Dew Point Humidity Pressure Visibility Wind Dir Wind Speed Gust Speed Precip Events Conditions
12:00 AM - - 66 °F % 29.89 in 0 mi NNE 13.8 mph - -  
12:00 AM 69.8 °F - 66.2 °F 88% 30.01 in 6.2 mi NE 2.3 mph - N/A   Scattered Clouds
1:00 AM 69.8 °F - 64.4 °F 83% 29.98 in 6.2 mi NE 3.5 mph - N/A   Partly Cloudy
2:00 AM 69.8 °F - 62.6 °F 78% 29.96 in 6.2 mi NE 4.6 mph - N/A   Partly Cloudy
3:00 AM 68 °F - 63 °F 80% 29.84 in 12 mi NE 6.9 mph - -   Scattered Clouds
3:00 AM 68.0 °F - 62.6 °F 83% 29.95 in - NE 6.9 mph - N/A   Clear
4:00 AM 68.0 °F - 62.6 °F 83% 29.95 in - ENE 4.6 mph - N/A   Clear
5:00 AM 69.8 °F - 60.8 °F 73% 29.96 in 6.2 mi ENE 4.6 mph - N/A   Partly Cloudy
6:00 AM 70 °F - 59 °F 60% 29.83 in 12 mi East 11.5 mph - -   Scattered Clouds
6:00 AM 69.8 °F - 59.0 °F 68% 29.97 in 6.2 mi East 11.5 mph - N/A   Mostly Cloudy
7:00 AM 73.4 °F - 59.0 °F 61% 29.98 in 6.2 mi ESE 10.4 mph - N/A   Scattered Clouds
8:00 AM 75.2 °F - 59.0 °F 57% 30.01 in 6.2 mi ESE 11.5 mph - N/A   Partly Cloudy
9:00 AM 79 °F - 60 °F 43% 29.82 in 12 mi East 11.5 mph - -   Scattered Clouds
9:00 AM 78.8 °F - 60.8 °F 54% 30.02 in 6.2 mi East 11.5 mph - N/A   Mostly Cloudy
10:00 AM 80.6 °F 81.5 °F 60.8 °F 51% 30.02 in 6.2 mi East 13.8 mph - N/A   Scattered Clouds
10:20 AM 80.6 °F 81.5 °F 60.8 °F 51% 30.01 in 6.2 mi ESE 13.8 mph 26.5 mph N/A   Partly Cloudy
11:00 AM 80.6 °F 81.1 °F 59.0 °F 48% 30.00 in 6.2 mi East 13.8 mph - N/A   Scattered Clouds
12:00 PM 78.8 °F - 59.0 °F 51% 30.00 in 6.2 mi East 13.8 mph - N/A   Scattered Clouds
1:00 PM 80.6 °F 80.3 °F 53.6 °F 39% 29.97 in 6.2 mi ESE 16.1 mph 27.6 mph N/A   Mostly Cloudy
2:00 PM 80.6 °F - 51.8 °F 37% 29.95 in 6.2 mi East 16.1 mph 27.6 mph N/A   Mostly Cloudy
3:00 PM 78 °F - 53 °F 31% 29.83 in 12 mi East 13.8 mph - -   Scattered Clouds
3:00 PM 78.8 °F - 53.6 °F 42% 29.95 in 6.2 mi East 13.8 mph - N/A   Mostly Cloudy
4:00 PM 75.2 °F - 59.0 °F 57% 29.96 in 6.2 mi ESE 11.5 mph 23.0 mph N/A   Mostly Cloudy
5:00 PM 73.4 °F - 59.0 °F 61% 29.96 in 6.2 mi East 10.4 mph - N/A   Mostly Cloudy
6:00 PM 72 °F - 58 °F 51% 29.84 in 12 mi East 9.2 mph - -   Scattered Clouds
6:00 PM 71.6 °F - 57.2 °F 60% 29.98 in 6.2 mi East 9.2 mph - N/A   Mostly Cloudy
7:00 PM 71.6 °F - 59.0 °F 64% 30.00 in 6.2 mi ESE 13.8 mph - N/A   Mostly Cloudy
8:00 PM 69.8 °F - 60.8 °F 73% 30.00 in - ESE 5.8 mph 17.3 mph N/A   Clear
9:00 PM 70 °F - 59 °F 60% 29.83 in 12 mi Calm Calm - -  
9:00 PM 69.8 °F - 59.0 °F 68% 30.02 in - Calm Calm - N/A   Clear
10:00 PM 69.8 °F - 59.0 °F 68% 30.03 in - East 9.2 mph - N/A   Clear
11:00 PM 69.8 °F - 59.0 °F 68% 30.04 in - WSW 3.5 mph - N/A   Clear